owner,sensor,date,latitude,longitude,vertical_datum,direction_of_sea_water_velocity,sea_water_speed,upward_sea_water_velocity,qcFlag 
TABS,ioos:station:wmo:42043:1,2007-02-01T00:00:00Z,28.9818,-94.9186,2.0,232.4360881,76.65161773,-99999.0,'11111222,11111222,99999999' 
TABS,ioos:station:wmo:42043:1,2007-02-01T00:30:00Z,28.9818,-94.9186,2.0,230.603255,67.05718455,-99999.0,'11111222,11111222,99999999' 
TABS,ioos:station:wmo:42043:1,2007-02-01T01:00:00Z,28.9818,-94.9186,2.0,235.4090717,95.64767431,-99999.0,'11111222,11111222,99999999' 
TABS,ioos:station:wmo:42043:1,2007-02-01T01:30:00Z,28.9818,-94.9186,2.0,233.4815116,101.9699215,-99999.0,'11111222,11111222,99999999' 
TABS,ioos:station:wmo:42043:1,2007-02-01T02:00:00Z,28.9818,-94.9186,2.0,232.8768159,101.0229845,-99999.0,'11111222,11111222,99999999' 
TABS,ioos:station:wmo:42043:1,2007-02-01T02:30:00Z,28.9818,-94.9186,2.0,228.1170539,108.3122602,-99999.0,'11111222,11111222,99999999' 
TABS,ioos:station:wmo:42043:1,2007-02-01T03:00:00Z,28.9818,-94.9186,2.0,223.182223,107.4635808,-99999.0,'11111222,11111222,99999999' 
TABS,ioos:station:wmo:42043:1,2007-02-01T03:30:00Z,28.9818,-94.9186,2.0,223.6892031,105.7401211,-99999.0,'11111222,11111222,99999999' 
TABS,ioos:station:wmo:42043:1,2007-02-01T04:00:00Z,28.9818,-94.9186,2.0,221.9922921,110.6519702,-99999.0,'11111222,11111222,99999999' 
TABS,ioos:station:wmo:42043:1,2007-02-01T04:30:00Z,28.9818,-94.9186,2.0,223.1097609,107.4184551,-99999.0,'11111222,11111222,99999999' 
TABS,ioos:station:wmo:42043:1,2007-02-01T05:00:00Z,28.9818,-94.9186,2.0,221.3973764,108.9399835,-99999.0,'11111222,11111222,99999999' 
TABS,ioos:station:wmo:42043:1,2007-02-01T05:30:00Z,28.9818,-94.9186,2.0,219.4257918,109.4188763,-99999.0,'11111222,11111222,99999999' 
TABS,ioos:station:wmo:42043:1,2007-02-01T06:00:00Z,28.9818,-94.9186,2.0,224.8690052,111.6100246,-99999.0,'11111222,11111222,99999999' 
TABS,ioos:station:wmo:42043:1,2007-02-01T06:30:00Z,28.9818,-94.9186,2.0,223.5095531,109.0373849,-99999.0,'11111222,11111222,99999999' 
TABS,ioos:station:wmo:42043:1,2007-02-01T07:00:00Z,28.9818,-94.9186,2.0,224.6272413,98.98996969,-99999.0,'11111222,11111222,99999999' 
TABS,ioos:station:wmo:42043:1,2007-02-01T07:30:00Z,28.9818,-94.9186,2.0,225.5544182,103.7091414,-99999.0,'11111222,11111222,99999999' 
TABS,ioos:station:wmo:42043:1,2007-02-01T08:00:00Z,28.9818,-94.9186,2.0,228.9557888,91.83157191,-99999.0,'11111222,11111222,99999999' 
TABS,ioos:station:wmo:42043:1,2007-02-01T08:30:00Z,28.9818,-94.9186,2.0,230.4148206,98.38042742,-99999.0,'11111222,11111222,99999999' 
TABS,ioos:station:wmo:42043:1,2007-02-01T09:00:00Z,28.9818,-94.9186,2.0,233.3409524,94.41464134,-99999.0,'11111222,11111222,99999999' 
TABS,ioos:station:wmo:42043:1,2007-02-01T09:30:00Z,28.9818,-94.9186,2.0,231.6452231,99.04524471,-99999.0,'11111222,11111222,99999999' 
TABS,ioos:station:wmo:42043:1,2007-02-01T10:00:00Z,28.9818,-94.9186,2.0,229.4352104,92.80286903,-99999.0,'11111222,11111222,99999999' 
TABS,ioos:station:wmo:42043:1,2007-02-01T10:30:00Z,28.9818,-94.9186,2.0,231.8496912,106.5365876,-99999.0,'11111222,11111222,99999999' 
TABS,ioos:station:wmo:42043:1,2007-02-01T11:00:00Z,28.9818,-94.9186,2.0,234.2642447,97.68114762,-99999.0,'11111222,11111222,99999999' 
TABS,ioos:station:wmo:42043:1,2007-02-01T11:30:00Z,28.9818,-94.9186,2.0,238.9391161,79.19472962,-99999.0,'11111222,11111222,99999999' 
TABS,ioos:station:wmo:42043:1,2007-02-01T12:00:00Z,28.9818,-94.9186,2.0,238.5194185,73.43867782,-99999.0,'11111222,11111222,99999999' 
TABS,ioos:station:wmo:42043:1,2007-02-01T12:30:00Z,28.9818,-94.9186,2.0,237.1396032,99.55971726,-99999.0,'11111222,11111222,99999999' 
TABS,ioos:station:wmo:42043:1,2007-02-01T13:00:00Z,28.9818,-94.9186,2.0,236.211329,103.5016618,-99999.0,'11111222,11111222,99999999' 
TABS,ioos:station:wmo:42043:1,2007-02-01T13:30:00Z,28.9818,-94.9186,2.0,239.5758447,91.17441143,-99999.0,'11111222,11111222,99999999' 
TABS,ioos:station:wmo:42043:1,2007-02-01T14:00:00Z,28.9818,-94.9186,2.0,238.2435001,90.65081632,-99999.0,'11111222,11111222,99999999' 
TABS,ioos:station:wmo:42043:1,2007-02-01T14:30:00Z,28.9818,-94.9186,2.0,236.148466,95.66674762,-99999.0,'11111222,11111222,99999999' 
TABS,ioos:station:wmo:42043:1,2007-02-01T15:00:00Z,28.9818,-94.9186,2.0,238.7728822,99.3776172,-99999.0,'11111222,11111222,99999999' 
TABS,ioos:station:wmo:42043:1,2007-02-01T15:30:00Z,28.9818,-94.9186,2.0,239.8427339,93.65608843,-99999.0,'11111222,11111222,99999999' 
TABS,ioos:station:wmo:42043:1,2007-02-01T16:00:00Z,28.9818,-94.9186,2.0,244.577103,89.9391183,-99999.0,'11111222,11111222,99999999' 
TABS,ioos:station:wmo:42043:1,2007-02-01T16:30:00Z,28.9818,-94.9186,2.0,244.2789988,85.87880879,-99999.0,'11111222,11111222,99999999' 
TABS,ioos:station:wmo:42043:1,2007-02-01T17:00:00Z,28.9818,-94.9186,2.0,245.3313185,79.04358924,-99999.0,'11111222,11111222,99999999' 
TABS,ioos:station:wmo:42043:1,2007-02-01T17:30:00Z,28.9818,-94.9186,2.0,242.2769637,69.94953895,-99999.0,'11111222,11111222,99999999' 
TABS,ioos:station:wmo:42043:1,2007-02-01T18:00:00Z,28.9818,-94.9186,2.0,240.421593,62.1950006,-99999.0,'11111222,11111222,99999999' 
TABS,ioos:station:wmo:42043:1,2007-02-01T18:30:00Z,28.9818,-94.9186,2.0,240.1412094,63.83336118,-99999.0,'11111222,11111222,99999999' 
TABS,ioos:station:wmo:42043:1,2007-02-01T19:00:00Z,28.9818,-94.9186,2.0,242.0798124,66.01376372,-99999.0,'11111222,11111222,99999999' 
TABS,ioos:station:wmo:42043:1,2007-02-01T19:30:00Z,28.9818,-94.9186,2.0,241.1755853,70.00308136,-99999.0,'11111222,11111222,99999999' 
TABS,ioos:station:wmo:42043:1,2007-02-01T20:00:00Z,28.9818,-94.9186,2.0,240.6759698,70.52681547,-99999.0,'11111222,11111222,99999999' 
TABS,ioos:station:wmo:42043:1,2007-02-01T20:30:00Z,28.9818,-94.9186,2.0,233.6309058,73.17279891,-99999.0,'11111222,11111222,99999999' 
TABS,ioos:station:wmo:42043:1,2007-02-01T21:00:00Z,28.9818,-94.9186,2.0,231.2673606,66.64720624,-99999.0,'11111222,11111222,99999999' 
TABS,ioos:station:wmo:42043:1,2007-02-01T21:30:00Z,28.9818,-94.9186,2.0,231.9074287,70.31600102,-99999.0,'11111222,11111222,99999999' 
TABS,ioos:station:wmo:42043:1,2007-02-01T22:00:00Z,28.9818,-94.9186,2.0,233.8090955,76.92140664,-99999.0,'11111222,11111222,99999999' 
TABS,ioos:station:wmo:42043:1,2007-02-01T22:30:00Z,28.9818,-94.9186,2.0,229.6155761,78.1128805,-99999.0,'11111222,11111222,99999999' 
TABS,ioos:station:wmo:42043:1,2007-02-01T23:00:00Z,28.9818,-94.9186,2.0,234.5608311,86.24890144,-99999.0,'11111222,11111222,99999999' 
TABS,ioos:station:wmo:42043:1,2007-02-01T23:30:00Z,28.9818,-94.9186,2.0,232.3283872,84.36825232,-99999.0,'11111222,11111222,99999999' 
TABS,ioos:station:wmo:42043:1,2007-02-02T00:00:00Z,28.9818,-94.9186,2.0,230.4883059,88.26978872,-99999.0,'11111222,11111222,99999999' 
TABS,ioos:station:wmo:42043:1,2007-02-02T00:30:00Z,28.9818,-94.9186,2.0,231.0691507,80.65215434,-99999.0,'11111222,11111222,99999999' 
TABS,ioos:station:wmo:42043:1,2007-02-02T01:00:00Z,28.9818,-94.9186,2.0,234.0924988,81.29947663,-99999.0,'11111222,11111222,99999999' 
TABS,ioos:station:wmo:42043:1,2007-02-02T01:30:00Z,28.9818,-94.9186,2.0,235.0497167,71.39608112,-99999.0,'11111222,11111222,99999999' 
TABS,ioos:station:wmo:42043:1,2007-02-02T02:00:00Z,28.9818,-94.9186,2.0,237.752561,66.08297587,-99999.0,'11111222,11111222,99999999' 
TABS,ioos:station:wmo:42043:1,2007-02-02T02:30:00Z,28.9818,-94.9186,2.0,231.6189899,66.67917891,-99999.0,'11111222,11111222,99999999' 
TABS,ioos:station:wmo:42043:1,2007-02-02T03:00:00Z,28.9818,-94.9186,2.0,232.0435092,65.61979275,-99999.0,'11111222,11111222,99999999' 
TABS,ioos:station:wmo:42043:1,2007-02-02T03:30:00Z,28.9818,-94.9186,2.0,234.7420309,57.0805974,-99999.0,'11111222,11111222,99999999' 
TABS,ioos:station:wmo:42043:1,2007-02-02T04:00:00Z,28.9818,-94.9186,2.0,236.3330401,60.98929168,-99999.0,'11111222,11111222,99999999' 
TABS,ioos:station:wmo:42043:1,2007-02-02T04:30:00Z,28.9818,-94.9186,2.0,238.912671,55.02201832,-99999.0,'11111222,11111222,99999999' 
TABS,ioos:station:wmo:42043:1,2007-02-02T05:00:00Z,28.9818,-94.9186,2.0,237.4136771,55.1280201,-99999.0,'11111222,11111222,99999999' 
TABS,ioos:station:wmo:42043:1,2007-02-02T05:30:00Z,28.9818,-94.9186,2.0,239.023694,48.32144245,-99999.0,'11111222,11111222,99999999' 
TABS,ioos:station:wmo:42043:1,2007-02-02T06:00:00Z,28.9818,-94.9186,2.0,239.9953661,43.83432445,-99999.0,'11111222,11111222,99999999' 
TABS,ioos:station:wmo:42043:1,2007-02-02T06:30:00Z,28.9818,-94.9186,2.0,238.4783382,45.29320589,-99999.0,'11111222,11111222,99999999' 
TABS,ioos:station:wmo:42043:1,2007-02-02T07:00:00Z,28.9818,-94.9186,2.0,240.4661477,44.04255329,-99999.0,'11111222,11111222,99999999' 
TABS,ioos:station:wmo:42043:1,2007-02-02T07:30:00Z,28.9818,-94.9186,2.0,240.205391,44.61779129,-99999.0,'11111222,11111222,99999999' 
TABS,ioos:station:wmo:42043:1,2007-02-02T08:00:00Z,28.9818,-94.9186,2.0,243.8690727,44.82103524,-99999.0,'11111222,11111222,99999999' 
TABS,ioos:station:wmo:42043:1,2007-02-02T08:30:00Z,28.9818,-94.9186,2.0,244.4819903,43.54799192,-99999.0,'11111222,11111222,99999999' 
TABS,ioos:station:wmo:42043:1,2007-02-02T09:00:00Z,28.9818,-94.9186,2.0,242.9536764,46.88752499,-99999.0,'11111222,11111222,99999999' 
TABS,ioos:station:wmo:42043:1,2007-02-02T09:30:00Z,28.9818,-94.9186,2.0,239.8691062,47.17395892,-99999.0,'11111222,11111222,99999999' 
TABS,ioos:station:wmo:42043:1,2007-02-02T10:00:00Z,28.9818,-94.9186,2.0,234.8580736,53.97855593,-99999.0,'11111222,11111222,99999999' 
TABS,ioos:station:wmo:42043:1,2007-02-02T10:30:00Z,28.9818,-94.9186,2.0,235.9743771,54.04259154,-99999.0,'11111222,11111222,99999999' 
TABS,ioos:station:wmo:42043:1,2007-02-02T11:00:00Z,28.9818,-94.9186,2.0,235.988757,60.42721324,-99999.0,'11111222,11111222,99999999' 
TABS,ioos:station:wmo:42043:1,2007-02-02T11:30:00Z,28.9818,-94.9186,2.0,234.6927834,62.91140755,-99999.0,'11111222,11111222,99999999' 
TABS,ioos:station:wmo:42043:1,2007-02-02T12:00:00Z,28.9818,-94.9186,2.0,235.6561817,72.23220957,-99999.0,'11111222,11111222,99999999' 
TABS,ioos:station:wmo:42043:1,2007-02-02T12:30:00Z,28.9818,-94.9186,2.0,236.4441235,81.50232451,-99999.0,'11111222,11111222,99999999' 
TABS,ioos:station:wmo:42043:1,2007-02-02T13:00:00Z,28.9818,-94.9186,2.0,236.8451516,86.04885357,-99999.0,'11111222,11111222,99999999' 
TABS,ioos:station:wmo:42043:1,2007-02-02T13:30:00Z,28.9818,-94.9186,2.0,237.6552314,90.82114842,-99999.0,'11111222,11111222,99999999' 
TABS,ioos:station:wmo:42043:1,2007-02-02T14:00:00Z,28.9818,-94.9186,2.0,236.9114273,94.79239896,-99999.0,'11111222,11111222,99999999' 
TABS,ioos:station:wmo:42043:1,2007-02-02T14:30:00Z,28.9818,-94.9186,2.0,236.6168465,97.23202199,-99999.0,'11111222,11111222,99999999' 
TABS,ioos:station:wmo:42043:1,2007-02-02T15:00:00Z,28.9818,-94.9186,2.0,235.5578586,100.8365336,-99999.0,'11111222,11111222,99999999' 
TABS,ioos:station:wmo:42043:1,2007-02-02T15:30:00Z,28.9818,-94.9186,2.0,236.1711649,101.0222946,-99999.0,'11111222,11111222,99999999' 
TABS,ioos:station:wmo:42043:1,2007-02-02T16:00:00Z,28.9818,-94.9186,2.0,236.8787182,102.1946853,-99999.0,'11111222,11111222,99999999' 
TABS,ioos:station:wmo:42043:1,2007-02-02T16:30:00Z,28.9818,-94.9186,2.0,240.8619923,95.15114818,-99999.0,'11111222,11111222,99999999' 
TABS,ioos:station:wmo:42043:1,2007-02-02T17:00:00Z,28.9818,-94.9186,2.0,239.0338351,95.40809295,-99999.0,'11111222,11111222,99999999' 
TABS,ioos:station:wmo:42043:1,2007-02-02T17:30:00Z,28.9818,-94.9186,2.0,243.5796137,91.87585537,-99999.0,'11111222,11111222,99999999' 
TABS,ioos:station:wmo:42043:1,2007-02-02T18:00:00Z,28.9818,-94.9186,2.0,241.6468816,91.02991267,-99999.0,'11111222,11111222,99999999' 
TABS,ioos:station:wmo:42043:1,2007-02-02T18:30:00Z,28.9818,-94.9186,2.0,240.1296308,92.00174346,-99999.0,'11111222,11111222,99999999' 
TABS,ioos:station:wmo:42043:1,2007-02-02T19:00:00Z,28.9818,-94.9186,2.0,245.5185853,84.36450675,-99999.0,'11111222,11111222,99999999' 
TABS,ioos:station:wmo:42043:1,2007-02-02T19:30:00Z,28.9818,-94.9186,2.0,242.8706257,82.23761974,-99999.0,'11111222,11111222,99999999' 
TABS,ioos:station:wmo:42043:1,2007-02-02T20:00:00Z,28.9818,-94.9186,2.0,241.7222488,83.0622959,-99999.0,'11111222,11111222,99999999' 
TABS,ioos:station:wmo:42043:1,2007-02-02T20:30:00Z,28.9818,-94.9186,2.0,241.3194919,80.70100929,-99999.0,'11111222,11111222,99999999' 
TABS,ioos:station:wmo:42043:1,2007-02-02T21:00:00Z,28.9818,-94.9186,2.0,245.6018772,76.98475239,-99999.0,'11111222,11111222,99999999' 
TABS,ioos:station:wmo:42043:1,2007-02-02T21:30:00Z,28.9818,-94.9186,2.0,249.0507298,76.13237419,-99999.0,'11111222,11111222,99999999' 
TABS,ioos:station:wmo:42043:1,2007-02-02T22:00:00Z,28.9818,-94.9186,2.0,249.9353407,77.18445698,-99999.0,'11111222,11111222,99999999' 
TABS,ioos:station:wmo:42043:1,2007-02-02T22:30:00Z,28.9818,-94.9186,2.0,251.3440042,71.43321986,-99999.0,'11111222,11111222,99999999' 
TABS,ioos:station:wmo:42043:1,2007-02-02T23:00:00Z,28.9818,-94.9186,2.0,254.0055562,66.30671535,-99999.0,'11111222,11111222,99999999' 
TABS,ioos:station:wmo:42043:1,2007-02-02T23:30:00Z,28.9818,-94.9186,2.0,249.3043473,69.83631792,-99999.0,'11111222,11111222,99999999' 
TABS,ioos:station:wmo:42043:1,2007-02-03T00:00:00Z,28.9818,-94.9186,2.0,248.3780029,73.383445,-99999.0,'11111222,11111222,99999999' 
TABS,ioos:station:wmo:42043:1,2007-02-03T00:30:00Z,28.9818,-94.9186,2.0,251.5007338,62.34118061,-99999.0,'11111222,11111222,99999999' 
TABS,ioos:station:wmo:42043:1,2007-02-03T01:00:00Z,28.9818,-94.9186,2.0,250.7669592,63.14415571,-99999.0,'11111222,11111222,99999999' 
TABS,ioos:station:wmo:42043:1,2007-02-03T01:30:00Z,28.9818,-94.9186,2.0,247.6866506,62.18627662,-99999.0,'11111222,11111222,99999999' 
TABS,ioos:station:wmo:42043:1,2007-02-03T02:00:00Z,28.9818,-94.9186,2.0,251.9650811,49.77546584,-99999.0,'11111222,11111222,99999999' 
TABS,ioos:station:wmo:42043:1,2007-02-03T02:30:00Z,28.9818,-94.9186,2.0,249.3141458,58.54413122,-99999.0,'11111222,11111222,99999999' 
TABS,ioos:station:wmo:42043:1,2007-02-03T03:00:00Z,28.9818,-94.9186,2.0,245.9276293,54.18201639,-99999.0,'11111222,11111222,99999999' 
TABS,ioos:station:wmo:42043:1,2007-02-03T03:30:00Z,28.9818,-94.9186,2.0,243.3884785,61.12517403,-99999.0,'11111222,11111222,99999999' 
TABS,ioos:station:wmo:42043:1,2007-02-03T04:00:00Z,28.9818,-94.9186,2.0,248.7901164,55.72457357,-99999.0,'11111222,11111222,99999999' 
TABS,ioos:station:wmo:42043:1,2007-02-03T04:30:00Z,28.9818,-94.9186,2.0,252.4141928,51.40214879,-99999.0,'11111222,11111222,99999999' 
TABS,ioos:station:wmo:42043:1,2007-02-03T05:00:00Z,28.9818,-94.9186,2.0,257.5403401,50.93964762,-99999.0,'11111222,11111222,99999999' 
TABS,ioos:station:wmo:42043:1,2007-02-03T05:30:00Z,28.9818,-94.9186,2.0,253.5186857,47.76235442,-99999.0,'11111222,11111222,99999999' 
TABS,ioos:station:wmo:42043:1,2007-02-03T06:00:00Z,28.9818,-94.9186,2.0,253.7464053,36.05080027,-99999.0,'11111222,11111222,99999999' 
TABS,ioos:station:wmo:42043:1,2007-02-03T06:30:00Z,28.9818,-94.9186,2.0,253.2119791,45.32152027,-99999.0,'11111222,11111222,99999999' 
TABS,ioos:station:wmo:42043:1,2007-02-03T07:00:00Z,28.9818,-94.9186,2.0,251.9726989,41.29723114,-99999.0,'11111222,11111222,99999999' 
TABS,ioos:station:wmo:42043:1,2007-02-03T07:30:00Z,28.9818,-94.9186,2.0,252.2985972,39.00673275,-99999.0,'11111222,11111222,99999999' 
TABS,ioos:station:wmo:42043:1,2007-02-03T08:00:00Z,28.9818,-94.9186,2.0,254.2766798,32.54783096,-99999.0,'11111222,11111222,99999999' 
TABS,ioos:station:wmo:42043:1,2007-02-03T08:30:00Z,28.9818,-94.9186,2.0,246.3346407,35.00351554,-99999.0,'11111222,11111222,99999999' 
TABS,ioos:station:wmo:42043:1,2007-02-03T09:00:00Z,28.9818,-94.9186,2.0,243.6128723,34.49375161,-99999.0,'11111222,11111222,99999999' 
TABS,ioos:station:wmo:42043:1,2007-02-03T09:30:00Z,28.9818,-94.9186,2.0,240.5200512,35.09352362,-99999.0,'11111222,11111222,99999999' 
TABS,ioos:station:wmo:42043:1,2007-02-03T10:00:00Z,28.9818,-94.9186,2.0,242.0201701,41.30828972,-99999.0,'11111222,11111222,99999999' 
TABS,ioos:station:wmo:42043:1,2007-02-03T10:30:00Z,28.9818,-94.9186,2.0,241.9074546,53.02706196,-99999.0,'11111222,11111222,99999999' 
TABS,ioos:station:wmo:42043:1,2007-02-03T11:00:00Z,28.9818,-94.9186,2.0,242.3316631,48.32591023,-99999.0,'11111222,11111222,99999999' 
TABS,ioos:station:wmo:42043:1,2007-02-03T11:30:00Z,28.9818,-94.9186,2.0,244.3887378,55.5918861,-99999.0,'11111222,11111222,99999999' 
TABS,ioos:station:wmo:42043:1,2007-02-03T12:00:00Z,28.9818,-94.9186,2.0,239.8341716,63.02498711,-99999.0,'11111222,11111222,99999999' 
TABS,ioos:station:wmo:42043:1,2007-02-03T12:30:00Z,28.9818,-94.9186,2.0,241.2016287,66.80182632,-99999.0,'11111222,11111222,99999999' 
TABS,ioos:station:wmo:42043:1,2007-02-03T13:00:00Z,28.9818,-94.9186,2.0,239.9109649,74.00169525,-99999.0,'11111222,11111222,99999999' 
TABS,ioos:station:wmo:42043:1,2007-02-03T13:30:00Z,28.9818,-94.9186,2.0,243.54201,69.17512053,-99999.0,'11111222,11111222,99999999' 
TABS,ioos:station:wmo:42043:1,2007-02-03T14:00:00Z,28.9818,-94.9186,2.0,243.3544614,70.35123951,-99999.0,'11111222,11111222,99999999' 
TABS,ioos:station:wmo:42043:1,2007-02-03T14:30:00Z,28.9818,-94.9186,2.0,241.6790004,79.99486796,-99999.0,'11111222,11111222,99999999' 
TABS,ioos:station:wmo:42043:1,2007-02-03T15:00:00Z,28.9818,-94.9186,2.0,244.2643681,76.27580547,-99999.0,'11111222,11111222,99999999' 
TABS,ioos:station:wmo:42043:1,2007-02-03T15:30:00Z,28.9818,-94.9186,2.0,243.2870004,83.33405786,-99999.0,'11111222,11111222,99999999' 
TABS,ioos:station:wmo:42043:1,2007-02-03T16:00:00Z,28.9818,-94.9186,2.0,245.5039426,87.0666578,-99999.0,'11111222,11111222,99999999' 
TABS,ioos:station:wmo:42043:1,2007-02-03T16:30:00Z,28.9818,-94.9186,2.0,245.5113071,90.83060112,-99999.0,'11111222,11111222,99999999' 
TABS,ioos:station:wmo:42043:1,2007-02-03T17:00:00Z,28.9818,-94.9186,2.0,242.7668598,85.57566068,-99999.0,'11111222,11111222,99999999' 
TABS,ioos:station:wmo:42043:1,2007-02-03T17:30:00Z,28.9818,-94.9186,2.0,243.8312117,74.94137776,-99999.0,'11111222,11111222,99999999' 
TABS,ioos:station:wmo:42043:1,2007-02-03T18:00:00Z,28.9818,-94.9186,2.0,242.4116836,75.40328441,-99999.0,'11111222,11111222,99999999' 
TABS,ioos:station:wmo:42043:1,2007-02-03T18:30:00Z,28.9818,-94.9186,2.0,241.6994235,72.66527988,-99999.0,'11111222,11111222,99999999' 
TABS,ioos:station:wmo:42043:1,2007-02-03T19:00:00Z,28.9818,-94.9186,2.0,242.6052649,71.37382223,-99999.0,'11111222,11111222,99999999' 
TABS,ioos:station:wmo:42043:1,2007-02-03T19:30:00Z,28.9818,-94.9186,2.0,240.8331867,70.64758312,-99999.0,'11111222,11111222,99999999' 
TABS,ioos:station:wmo:42043:1,2007-02-03T20:00:00Z,28.9818,-94.9186,2.0,240.7362841,68.77720843,-99999.0,'11111222,11111222,99999999' 
TABS,ioos:station:wmo:42043:1,2007-02-03T20:30:00Z,28.9818,-94.9186,2.0,243.2859882,67.24773453,-99999.0,'11111222,11111222,99999999' 
TABS,ioos:station:wmo:42043:1,2007-02-03T21:00:00Z,28.9818,-94.9186,2.0,235.4700585,67.19804833,-99999.0,'11111222,11111222,99999999' 
TABS,ioos:station:wmo:42043:1,2007-02-03T21:30:00Z,28.9818,-94.9186,2.0,231.9714521,64.6052018,-99999.0,'11111222,11111222,99999999' 
TABS,ioos:station:wmo:42043:1,2007-02-03T22:00:00Z,28.9818,-94.9186,2.0,225.7377177,57.64105568,-99999.0,'11111222,11111222,99999999' 
TABS,ioos:station:wmo:42043:1,2007-02-03T22:30:00Z,28.9818,-94.9186,2.0,219.6032628,55.56322975,-99999.0,'11111222,11111222,99999999' 
TABS,ioos:station:wmo:42043:1,2007-02-03T23:00:00Z,28.9818,-94.9186,2.0,217.5408079,57.1939245,-99999.0,'11111222,11111222,99999999' 
TABS,ioos:station:wmo:42043:1,2007-02-03T23:30:00Z,28.9818,-94.9186,2.0,215.4991817,57.53445663,-99999.0,'11111222,11111222,99999999' 
TABS,ioos:station:wmo:42043:1,2007-02-04T00:00:00Z,28.9818,-94.9186,2.0,216.414503,62.19396193,-99999.0,'11111222,11111222,99999999' 
TABS,ioos:station:wmo:42043:1,2007-02-04T00:30:00Z,28.9818,-94.9186,2.0,211.1339621,60.51697365,-99999.0,'11111222,11111222,99999999' 
TABS,ioos:station:wmo:42043:1,2007-02-04T01:00:00Z,28.9818,-94.9186,2.0,213.2524366,57.41036927,-99999.0,'11111222,11111222,99999999' 
TABS,ioos:station:wmo:42043:1,2007-02-04T01:30:00Z,28.9818,-94.9186,2.0,211.1901223,54.62615674,-99999.0,'11111222,11111222,99999999' 
TABS,ioos:station:wmo:42043:1,2007-02-04T02:00:00Z,28.9818,-94.9186,2.0,214.2811363,51.32636944,-99999.0,'11111222,11111222,99999999' 
TABS,ioos:station:wmo:42043:1,2007-02-04T02:30:00Z,28.9818,-94.9186,2.0,216.3763152,50.17785966,-99999.0,'11111222,11111222,99999999' 
TABS,ioos:station:wmo:42043:1,2007-02-04T03:00:00Z,28.9818,-94.9186,2.0,217.8147329,57.83586863,-99999.0,'11111222,11111222,99999999' 
TABS,ioos:station:wmo:42043:1,2007-02-04T03:30:00Z,28.9818,-94.9186,2.0,219.0729889,55.40096118,-99999.0,'11111222,11111222,99999999' 
TABS,ioos:station:wmo:42043:1,2007-02-04T04:00:00Z,28.9818,-94.9186,2.0,223.7899897,52.58510911,-99999.0,'11111222,11111222,99999999' 
TABS,ioos:station:wmo:42043:1,2007-02-04T04:30:00Z,28.9818,-94.9186,2.0,230.7297243,49.71761257,-99999.0,'11111222,11111222,99999999' 
TABS,ioos:station:wmo:42043:1,2007-02-04T05:00:00Z,28.9818,-94.9186,2.0,232.5859138,47.83015471,-99999.0,'11111222,11111222,99999999' 
TABS,ioos:station:wmo:42043:1,2007-02-04T05:30:00Z,28.9818,-94.9186,2.0,230.8099021,42.88714959,-99999.0,'11111222,11111222,99999999' 
TABS,ioos:station:wmo:42043:1,2007-02-04T06:00:00Z,28.9818,-94.9186,2.0,227.6204148,44.5377413,-99999.0,'11111222,11111222,99999999' 
TABS,ioos:station:wmo:42043:1,2007-02-04T06:30:00Z,28.9818,-94.9186,2.0,227.7796868,46.65324212,-99999.0,'11111222,11111222,99999999' 
TABS,ioos:station:wmo:42043:1,2007-02-04T07:00:00Z,28.9818,-94.9186,2.0,227.7552906,46.0363867,-99999.0,'11111222,11111222,99999999' 
TABS,ioos:station:wmo:42043:1,2007-02-04T07:30:00Z,28.9818,-94.9186,2.0,230.9674944,50.46393167,-99999.0,'11111222,11111222,99999999' 
TABS,ioos:station:wmo:42043:1,2007-02-04T08:00:00Z,28.9818,-94.9186,2.0,229.5804003,49.84761679,-99999.0,'11111222,11111222,99999999' 
TABS,ioos:station:wmo:42043:1,2007-02-04T08:30:00Z,28.9818,-94.9186,2.0,234.0544759,52.79287547,-99999.0,'11111222,11111222,99999999' 
TABS,ioos:station:wmo:42043:1,2007-02-04T09:00:00Z,28.9818,-94.9186,2.0,240.5112367,55.41927463,-99999.0,'11111222,11111222,99999999' 
TABS,ioos:station:wmo:42043:1,2007-02-04T09:30:00Z,28.9818,-94.9186,2.0,236.2334911,66.82201808,-99999.0,'11111222,11111222,99999999' 
TABS,ioos:station:wmo:42043:1,2007-02-04T10:00:00Z,28.9818,-94.9186,2.0,236.1957777,69.81193093,-99999.0,'11111222,11111222,99999999' 
TABS,ioos:station:wmo:42043:1,2007-02-04T10:30:00Z,28.9818,-94.9186,2.0,232.3106546,67.01284802,-99999.0,'11111222,11111222,99999999' 
TABS,ioos:station:wmo:42043:1,2007-02-04T11:00:00Z,28.9818,-94.9186,2.0,230.2164881,72.09117075,-99999.0,'11111222,11111222,99999999' 
TABS,ioos:station:wmo:42043:1,2007-02-04T11:30:00Z,28.9818,-94.9186,2.0,231.4992864,75.2104514,-99999.0,'11111222,11111222,99999999' 
TABS,ioos:station:wmo:42043:1,2007-02-04T12:00:00Z,28.9818,-94.9186,2.0,233.5759949,83.97454674,-99999.0,'11111222,11111222,99999999' 
TABS,ioos:station:wmo:42043:1,2007-02-04T12:30:00Z,28.9818,-94.9186,2.0,233.9936252,84.89964959,-99999.0,'11111222,11111222,99999999' 
TABS,ioos:station:wmo:42043:1,2007-02-04T13:00:00Z,28.9818,-94.9186,2.0,233.0934441,85.17801712,-99999.0,'11111222,11111222,99999999' 
TABS,ioos:station:wmo:42043:1,2007-02-04T13:30:00Z,28.9818,-94.9186,2.0,234.7557506,86.83696506,-99999.0,'11111222,11111222,99999999' 
TABS,ioos:station:wmo:42043:1,2007-02-04T14:00:00Z,28.9818,-94.9186,2.0,234.4553239,90.000085,-99999.0,'11111222,11111222,99999999' 
TABS,ioos:station:wmo:42043:1,2007-02-04T14:30:00Z,28.9818,-94.9186,2.0,234.4070257,86.04537931,-99999.0,'11111222,11111222,99999999' 
TABS,ioos:station:wmo:42043:1,2007-02-04T15:00:00Z,28.9818,-94.9186,2.0,236.6942912,80.54983116,-99999.0,'11111222,11111222,99999999' 
TABS,ioos:station:wmo:42043:1,2007-02-04T15:30:00Z,28.9818,-94.9186,2.0,239.8648413,72.9031035,-99999.0,'11111222,11111222,99999999' 
TABS,ioos:station:wmo:42043:1,2007-02-04T16:00:00Z,28.9818,-94.9186,2.0,241.3439737,68.77356251,-99999.0,'11111222,11111222,99999999' 